[[{"header":{"parameterUnit":"m.s-1","parameterCategory":1,"la1":30.2991,"la2":30.254,"lo1":-89.0895,"lo2":-89.0444,"dy":0.0017,"dx":0.0017,"nx":28,"ny":28,"refTime":"2024-05-02T09:00:00:Z","depth":0,"parameterNumber":2,"parameterNumberName":"U-component_of_WINDS"},"data":[0,0,0,0,0,0,0,0,0,0,0,0,0,0,0,0,0,0,0,0,0,0,0,0,0,0,0,0,0,0,0,0,0,0,0,0,0,0,0,0,0,0,0,0,0,0,0,0,0,0,0,0,0,0,0,0,0,0,-2.6519,-2.652,0,-2.6575,-2.6575,-2.6576,-2.6567,-2.6566,-2.6565,-2.6564,-2.6622,-2.6624,-2.6626,0,0,0,0,0,0,0,0,0,0,0,0,0,-2.6408,-2.641,-2.6519,-2.652,-2.6521,-2.6574,-2.6575,-2.6576,-2.6567,-2.6566,-2.6565,-2.6564,-2.6621,-2.6624,-2.6627,0,0,0,0,0,0,0,0,0,0,0,0,0,-2.6459,-2.6411,-2.6519,-2.6523,-2.6523,-2.6574,-2.6575,-2.6576,-2.6567,-2.6566,-2.6564,-2.6563,-2.662,-2.6623,-2.6627,-2.6678,0,0,-2.6638,-2.664,0,0,0,0,0,0,0,0,-2.6456,-2.6463,-2.6521,-2.6522,-2.6523,-2.6562,-2.6557,-2.661,-2.6568,-2.6551,-2.6564,-2.6562,-2.6603,-2.6608,-2.6622,-2.6681,-2.6683,-2.6638,-2.6641,-2.6642,-2.6643,0,0,0,0,0,0,0,-2.6453,-2.6461,-2.6541,-2.6522,-2.6524,-2.6522,-2.6528,-2.6567,-2.6584,-2.6552,-2.6551,-2.6558,-2.6603,-2.6618,-2.6623,-2.6684,-2.6638,-2.6642,-2.6644,-2.6645,-2.679,-2.6792,0,0,0,0,0,0,-2.6448,-2.6458,-2.6539,-2.6543,-2.6486,-2.6525,-2.6532,-2.6551,-2.6584,-2.6587,-2.6559,-2.6557,-2.6613,-2.6619,-2.6625,-2.6687,-2.6642,-2.6646,-2.6648,-2.6788,-2.679,-2.6792,0,0,0,0,0,0,-2.6445,-2.6455,-2.6537,-2.65,-2.6511,-2.6529,-2.6551,-2.6553,-2.6568,-2.6589,-2.6592,-2.6571,-2.6612,-2.662,-2.6665,-2.6689,-2.6647,-2.6651,-2.6786,-2.6789,-2.6791,-2.6813,0,0,0,0,0,0,-2.6442,-2.6454,-2.6473,-2.6501,-2.6513,-2.6576,-2.6552,-2.6555,-2.6574,-2.6572,-2.6601,-2.6605,-2.6611,-2.666,-2.6669,-2.6693,-2.6653,-2.6784,-2.6787,-2.679,-2.681,-2.6815,-2.682,0,0,0,0,0,-2.6438,-2.6477,-2.6474,-2.6484,-2.6537,-2.6577,-2.6584,-2.6591,-2.6576,-2.6596,-2.661,-2.6604,-2.6686,-2.6665,-2.6675,-2.6701,-2.6783,-2.6787,-2.679,-2.6807,-2.6814,-2.682,0,0,0,0,0,0,-2.6452,-2.6481,-2.6478,-2.6526,-2.655,-2.6576,-2.66,-2.6598,-2.6625,-2.6623,-2.663,-2.6637,-2.6683,-2.6697,-2.6673,-2.6753,-2.6732,-2.6738,-2.6742,-2.6749,-2.6754,-2.6749,-2.6656,0,0,0,0,0,-2.6461,-2.6491,-2.6514,-2.6555,-2.6567,-2.6582,-2.66,-2.6603,-2.6627,-2.6637,-2.6654,-2.6679,-2.671,-2.673,-2.676,-2.6812,-2.6819,-2.6836,-2.6841,-2.6845,-2.685,-2.6879,-2.6887,-2.6804,-2.6804,-2.6804,0,0,-2.6479,-2.6498,-2.6517,-2.6558,-2.6577,-2.6608,-2.659,-2.6624,-2.6648,-2.6642,-2.6686,-2.67,-2.6728,-2.6777,-2.68,-2.679,-2.6874,-2.685,-2.6853,-2.6855,-2.6884,-2.6892,-2.6899,-2.6807,-2.6806,-2.6806,0,0,-2.6528,-2.6545,-2.6581,-2.66,-2.6628,-2.6638,-2.6647,-2.6674,-2.6683,-2.6728,-2.6724,-2.6754,-2.6807,-2.6827,-2.6844,-2.6903,-2.6899,-2.6913,-2.694,-2.6969,-2.6975,-2.6981,-2.7002,-2.701,-2.6918,-2.6918,-2.6918,0,-2.6546,-2.6593,-2.66,-2.6635,-2.6654,-2.6651,-2.6688,-2.6706,-2.6743,-2.6756,-2.6745,-2.6813,-2.6832,-2.6886,-2.69,-2.6915,-2.6925,-2.6909,-2.6974,-2.698,-2.6985,-2.7005,-2.7013,-2.692,-2.6919,-2.6919,-2.6919,0,-2.6615,-2.6648,-2.6674,-2.671,-2.6732,-2.6767,-2.6781,-2.6802,-2.6805,-2.6816,-2.6862,-2.6884,-2.6919,-2.6933,-2.6935,-2.6988,-2.6981,-2.6972,-2.6951,-2.6994,-2.7014,-2.7021,-2.6922,-2.6921,-2.6921,-2.692,0,0,-2.6672,-2.6712,-2.6722,-2.6738,-2.677,-2.6796,-2.6832,-2.6866,-2.6885,-2.6911,-2.6942,-2.6989,-2.6981,-2.7,-2.7005,-2.7031,-2.7076,-2.7019,-2.7019,-2.7028,-2.7137,-2.7143,-2.7152,-2.7075,-2.7076,-2.7077,-2.7134,0,-2.6724,-2.6787,-2.6796,-2.6852,-2.6883,-2.6882,-2.6914,-2.6938,-2.695,-2.6979,-2.6993,-2.7026,-2.7013,-2.7025,-2.705,-2.7065,-2.7098,-2.7062,-2.7104,-2.7105,-2.7096,-2.7162,-2.7168,-2.722,-2.7142,-2.7143,-2.7144,0,-2.6792,-2.682,-2.688,-2.6908,-2.6922,-2.695,-2.6983,-2.701,-2.7037,-2.7045,-2.7068,-2.707,-2.7109,-2.7088,-2.7142,-2.7117,-2.7135,-2.7145,-2.7148,-2.7151,-2.7126,-2.7166,-2.7237,-2.7245,-2.7156,-2.7155,-2.7154,0,-2.6828,-2.688,-2.6923,-2.6937,-2.6972,-2.6992,-2.7007,-2.7033,-2.7053,-2.7082,-2.7096,-2.7129,-2.7147,-2.7174,-2.7185,-2.7169,-2.7239,-2.7219,-2.7247,-2.7246,-2.726,-2.7259,-2.7335,-2.7273,-2.7273,-2.7273,-2.7273,0,-2.6884,-2.692,-2.6939,-2.6965,-2.7007,-2.7017,-2.7058,-2.7073,-2.7096,-2.7126,-2.7128,-2.7156,-2.717,-2.72,-2.721,-2.7254,-2.7262,-2.7269,-2.7271,-2.7269,-2.7268,-2.728,-2.7276,-2.7275,-2.7275,-2.7274,-2.7274,0,-2.693,-2.6944,-2.699,-2.7019,-2.7028,-2.7057,-2.7082,-2.7108,-2.7121,-2.7159,-2.7169,-2.7189,-2.7225,-2.724,-2.7285,-2.7291,-2.7341,-2.7341,-2.7332,-2.7332,-2.7359,-2.7356,-2.7444,-2.7457,-2.7388,-2.7389,-2.7389,0,-2.6964,-2.6992,-2.7025,-2.7044,-2.706,-2.7093,-2.7114,-2.7125,-2.7147,-2.7182,-2.7204,-2.724,-2.7269,-2.7328,-2.7347,-2.7381,-2.7381,-2.741,-2.7386,-2.7383,-2.7381,-2.7379,-2.7382,-2.7414,-2.7415,-2.7415,-2.7416,0,-2.7024,-2.703,-2.7059,-2.7093,-2.7118,-2.7144,-2.717,-2.7187,-2.7203,-2.7228,-2.7264,-2.7287,-2.7333,-2.7369,-2.7405,-2.7422,-2.7422,-2.7423,-2.7431,-2.7429,-2.7422,-2.7426,-2.7343,-2.7421,-2.742,-2.742,-2.742,-2.7419,-2.7065,-2.709,-2.7117,-2.7151,-2.7171,-2.7196,-2.7222,-2.7239,-2.7269,-2.7307,-2.7313,-2.7353,-2.7381,-2.7429,-2.7448,-2.748,-2.7472,-2.7484,-2.7487,-2.749,-2.7491,-2.7418,-2.7486,-2.7486,-2.7486,-2.7486,-2.7486,0,-2.7124,-2.7142,-2.7173,-2.7209,-2.7236,-2.7234,-2.7263,-2.7286,-2.732,-2.7347,-2.7376,-2.7419,-2.7455,-2.7478,-2.7514,-2.7535,-2.7536,-2.7544,-2.7542,-2.7546,-2.7496,-2.7485,-2.7543,-2.7543,-2.7543,-2.7543,-2.7543,-2.7543,-2.7158,-2.7201,-2.721,-2.7264,-2.7282,-2.732,-2.7337,-2.736,-2.7381,-2.7429,-2.7459,-2.7474,-2.7499,-2.7537,-2.757,-2.7576,-2.7589,-2.7598,-2.7603,-2.7556,-2.755,-2.7544,-2.7534,-2.7601,-2.7601,-2.7651,-2.7651,-2.7652]},{"header":{"parameterUnit":"m.s-1","parameterCategory":1,"la1":30.2991,"la2":30.254,"lo1":-89.0895,"lo2":-89.0444,"dy":0.0017,"dx":0.0017,"nx":28,"ny":28,"refTime":"2024-05-02T09:00:00:Z","depth":0,"parameterNumber":3,"parameterNumberName":"V-component_of_WINDS"},"data":[0,0,0,0,0,0,0,0,0,0,0,0,0,0,0,0,0,0,0,0,0,0,0,0,0,0,0,0,0,0,0,0,0,0,0,0,0,0,0,0,0,0,0,0,0,0,0,0,0,0,0,0,0,0,0,0,0,0,3.3782,3.3781,0,3.3769,3.3768,3.3768,3.3716,3.3715,3.3714,3.3713,3.3699,3.3699,3.37,0,0,0,0,0,0,0,0,0,0,0,0,0,3.3762,3.3763,3.3782,3.3781,3.3781,3.3769,3.3768,3.3768,3.3716,3.3715,3.3714,3.3712,3.3699,3.3699,3.37,0,0,0,0,0,0,0,0,0,0,0,0,0,3.3762,3.3763,3.3782,3.3754,3.3751,3.3769,3.3768,3.3768,3.3717,3.3715,3.3713,3.3711,3.3698,3.3699,3.37,3.3743,0,0,3.3704,3.3704,0,0,0,0,0,0,0,0,3.3762,3.3763,3.3758,3.3756,3.3753,3.3742,3.3756,3.376,3.3717,3.373,3.3713,3.3711,3.3715,3.3714,3.3716,3.3742,3.3742,3.3704,3.3705,3.3705,3.3705,0,0,0,0,0,0,0,3.3762,3.3763,3.3776,3.3758,3.3755,3.3742,3.374,3.3757,3.3732,3.3729,3.3725,3.3724,3.3713,3.3715,3.3715,3.3742,3.3704,3.3705,3.3706,3.3706,3.3804,3.3806,0,0,0,0,0,0,3.3766,3.3764,3.3777,3.3776,3.3753,3.3744,3.3742,3.3747,3.3732,3.3728,3.3726,3.3722,3.3714,3.3714,3.3714,3.3764,3.3705,3.3706,3.3707,3.3803,3.3805,3.3807,0,0,0,0,0,0,3.3766,3.3768,3.3777,3.3769,3.3769,3.3746,3.3753,3.3748,3.375,3.373,3.3725,3.3732,3.3712,3.3713,3.3737,3.3763,3.3707,3.3708,3.38,3.3803,3.3806,3.3864,0,0,0,0,0,0,3.3766,3.3768,3.3784,3.3769,3.377,3.38,3.3755,3.3749,3.3752,3.3747,3.3735,3.3731,3.3711,3.3735,3.3738,3.3763,3.3708,3.3798,3.3802,3.3805,3.3859,3.3868,3.3876,0,0,0,0,0,3.3765,3.38,3.3785,3.3787,3.3789,3.3801,3.3801,3.3778,3.3754,3.377,3.3758,3.3731,3.376,3.3738,3.3741,3.3767,3.3796,3.3801,3.3805,3.3856,3.3867,3.3876,0,0,0,0,0,0,3.3817,3.3798,3.378,3.3812,3.3809,3.3793,3.3812,3.379,3.3793,3.3788,3.3759,3.3757,3.3785,3.3778,3.3755,3.3808,3.3774,3.3779,3.3812,3.3822,3.383,3.3831,3.3709,0,0,0,0,0,3.3833,3.3845,3.3827,3.3856,3.3856,3.3834,3.3839,3.3821,3.3817,3.3815,3.3804,3.3801,3.3809,3.3815,3.3821,3.3859,3.3856,3.3878,3.3886,3.3893,3.3898,3.3918,3.3928,3.3821,3.3821,3.3821,0,0,3.3864,3.3855,3.3864,3.3867,3.3862,3.3875,3.3833,3.3849,3.3859,3.3817,3.3839,3.3832,3.3826,3.3857,3.387,3.3852,3.3927,3.3899,3.3904,3.3905,3.3924,3.3934,3.3943,3.3824,3.3824,3.3823,0,0,3.3928,3.3922,3.3947,3.3944,3.3938,3.3924,3.393,3.3917,3.3911,3.3933,3.3902,3.3914,3.3928,3.3926,3.3927,3.3993,3.3969,3.3996,3.4039,3.4059,3.4067,3.4074,3.4098,3.4107,3.4,3.4001,3.4001,0,3.3968,3.3987,3.3962,3.398,3.3982,3.3947,3.3972,3.397,3.3966,3.3969,3.3949,3.3968,3.3962,3.3992,3.4009,3.401,3.4017,3.3996,3.4068,3.4075,3.4081,3.4104,3.4113,3.4004,3.4003,3.4003,3.4003,0,3.4036,3.405,3.407,3.4069,3.4074,3.4095,3.4074,3.4082,3.4065,3.4053,3.4077,3.4068,3.4073,3.4079,3.4062,3.4108,3.4097,3.4073,3.4037,3.4095,3.4116,3.4125,3.4009,3.4007,3.4006,3.4006,0,0,3.4131,3.4117,3.4125,3.4125,3.4117,3.4127,3.4147,3.4153,3.416,3.416,3.4177,3.4191,3.4169,3.417,3.4153,3.417,3.4224,3.4144,3.4144,3.416,3.4275,3.4293,3.4304,3.4209,3.421,3.4211,3.4276,0,3.4193,3.4227,3.4206,3.4243,3.4256,3.4224,3.4242,3.4239,3.4229,3.4239,3.4228,3.4239,3.4209,3.4209,3.4226,3.4214,3.4247,3.4209,3.4224,3.4225,3.4227,3.4315,3.4333,3.4395,3.4284,3.4285,3.4286,0,3.4268,3.4272,3.4311,3.4302,3.4307,3.4323,3.4327,3.4337,3.4334,3.4325,3.4328,3.4306,3.4326,3.4292,3.4319,3.4294,3.4299,3.4295,3.4297,3.4297,3.4259,3.4317,3.4413,3.4423,3.4299,3.4298,3.4297,0,3.4335,3.435,3.4375,3.4376,3.4366,3.4378,3.4375,3.437,3.4375,3.4378,3.4381,3.4387,3.439,3.4396,3.4377,3.4353,3.4407,3.4371,3.4401,3.4402,3.4413,3.4413,3.4512,3.4417,3.4417,3.4417,3.4416,0,3.4406,3.4431,3.4405,3.4421,3.4448,3.4425,3.4453,3.4446,3.4442,3.4456,3.4428,3.4442,3.4416,3.4428,3.4413,3.4439,3.444,3.4434,3.443,3.4437,3.4438,3.4439,3.4435,3.4419,3.4418,3.4418,3.4417,0,3.4484,3.4468,3.4493,3.4483,3.448,3.4501,3.4492,3.4506,3.4495,3.4514,3.4517,3.4499,3.4511,3.4493,3.4503,3.4493,3.4529,3.4518,3.453,3.4527,3.4558,3.4556,3.4662,3.4675,3.4571,3.4572,3.4573,0,3.453,3.4549,3.4541,3.4548,3.4547,3.4559,3.4565,3.4543,3.455,3.4549,3.4563,3.4573,3.458,3.4601,3.4589,3.4597,3.4587,3.4623,3.4587,3.4594,3.4588,3.4587,3.4589,3.4631,3.4632,3.4633,3.4634,0,3.4614,3.4606,3.4615,3.4622,3.4629,3.4633,3.4635,3.4643,3.462,3.463,3.4642,3.4648,3.4659,3.4669,3.4674,3.467,3.4649,3.4645,3.4653,3.466,3.4666,3.4664,3.455,3.4643,3.4642,3.4641,3.4641,3.464,3.4678,3.4694,3.4691,3.4702,3.4702,3.4705,3.4719,3.471,3.472,3.4727,3.4714,3.473,3.4728,3.4733,3.4732,3.4744,3.4728,3.4739,3.4742,3.4745,3.475,3.4664,3.4745,3.4745,3.4744,3.4744,3.4744,0,3.4761,3.4758,3.4769,3.4774,3.4783,3.4762,3.4764,3.4773,3.4788,3.4788,3.4796,3.4811,3.4821,3.4811,3.482,3.4832,3.4822,3.4835,3.4834,3.4834,3.4763,3.4756,3.4843,3.4843,3.4843,3.4843,3.4843,3.4843,3.4806,3.4832,3.4823,3.4849,3.4846,3.4862,3.4865,3.4868,3.4868,3.4886,3.4895,3.4889,3.4885,3.4893,3.4902,3.4899,3.4904,3.492,3.4913,3.4848,3.4838,3.4829,3.4822,3.4921,3.4921,3.4982,3.4983,3.4983]}]]